Location: Melita
(38.4566°N, 122.6369°W)
Time: 01:18:00
(UTC+00:00)

USA 238 DEB - Pass Details

Date: 24 January 2020
Orbit: 1021 x 1191 km, 63.4° (Epoch: 20 February)

Event Time Altitude Azimuth Distance (km) Brightness Sun altitude
Exits shadow 12:44:37 50° 348° (NNW) 1,446 4.2 -30.8°
Maximum altitude 12:46:40 72° 55° (NE) 1,217 4.0 -30.4°
Drops below altitude 10° 12:54:06 10° 140° (SE) 3,100 6.6 -28.9°
Sets 12:56:52 0° 142° (SE) 4,068 7.3 -28.4°
